• In Belarus
  • List of Countries
  • For 7 days
  • Water Temperature
  • Satellite Maps
  • Weather Map
  • Weather Widgets
  • user-avatar
    Login

    Hourly Weather Asadabad

    Today, 21 February, Wednesday

    Time Temperature Precipitation Wind Pressure Humidity
    00:00 +12°C° 0.2 mm 2 mps 657 mmHg 61%
    01:00 +10°C° 0.2 mm 2 mps 657 mmHg 62%
    02:00 +10°C° 0.2 mm 2 mps 657 mmHg 63%
    03:00 +9°C° 0.1 mm 2 mps 656 mmHg 63%
    04:00 +9°C° 0.1 mm 2 mps 656 mmHg 63%
    05:00 +9°C° 0.1 mm 2 mps 656 mmHg 64%
    06:00 +9°C° 0.1 mm 2 mps 657 mmHg 62%
    07:00 +9°C° 0.1 mm 2 mps 657 mmHg 61%
    08:00 +10°C° 0.1 mm 2 mps 657 mmHg 59%
    09:00 +12°C° 0.1 mm 2 mps 658 mmHg 56%
    10:00 +14°C° 0.1 mm 2 mps 658 mmHg 53%
    11:00 +15°C° 0 mm 1 mps 658 mmHg 51%
    12:00 +15°C° 0.1 mm 1 mps 658 mmHg 50%
    13:00 +16°C° 0.1 mm 2 mps 658 mmHg 49%
    14:00 +16°C° 0.1 mm 2 mps 657 mmHg 48%
    15:00 +16°C° 0.2 mm 2 mps 657 mmHg 48%
    16:00 +16°C° 0.2 mm 2 mps 657 mmHg 49%
    17:00 +16°C° 0.2 mm 2 mps 657 mmHg 49%
    18:00 +14°C° 0.1 mm 2 mps 657 mmHg 51%
    19:00 +13°C° 0.1 mm 2 mps 657 mmHg 54%
    20:00 +12°C° 0.1 mm 2 mps 657 mmHg 56%
    21:00 +10°C° 0 mm 2 mps 657 mmHg 54%
    22:00 +10°C° 0 mm 2 mps 658 mmHg 52%
    23:00 +9°C° 0 mm 3 mps 658 mmHg 51%

    Tomorrow, 22 February, Thursday

    Time Temperature Precipitation Wind Pressure Humidity
    00:00 +9°C° 0 mm 3 mps 657 mmHg 49%
    01:00 +8°C° 0 mm 3 mps 657 mmHg 48%
    02:00 +8°C° 0 mm 3 mps 657 mmHg 46%
    03:00 +8°C° 0 mm 3 mps 657 mmHg 45%
    04:00 +8°C° 0 mm 3 mps 656 mmHg 44%
    05:00 +7°C° 0 mm 3 mps 656 mmHg 43%
    06:00 +8°C° 0 mm 3 mps 656 mmHg 42%
    07:00 +8°C° 0 mm 3 mps 656 mmHg 41%
    08:00 +9°C° 0 mm 3 mps 656 mmHg 39%
    09:00 +12°C° 0 mm 2 mps 656 mmHg 36%
    10:00 +13°C° 0 mm 2 mps 657 mmHg 33%
    11:00 +15°C° 0 mm 1 mps 657 mmHg 30%
    12:00 +15°C° 0 mm 1 mps 657 mmHg 31%
    13:00 +16°C° 0 mm 2 mps 656 mmHg 32%
    14:00 +16°C° 0 mm 2 mps 656 mmHg 33%
    15:00 +16°C° 0 mm 2 mps 656 mmHg 34%
    16:00 +16°C° 0 mm 2 mps 656 mmHg 34%
    17:00 +16°C° 0 mm 1 mps 656 mmHg 35%
    18:00 +14°C° 0 mm 2 mps 656 mmHg 38%
    19:00 +13°C° 0 mm 2 mps 656 mmHg 41%
    20:00 +12°C° 0 mm 2 mps 657 mmHg 43%
    21:00 +10°C° 0 mm 2 mps 657 mmHg 44%
    22:00 +10°C° 0 mm 2 mps 657 mmHg 44%
    23:00 +9°C° 0 mm 2 mps 657 mmHg 44%

    Day after tomorrow, 23 February, Friday

    Time Temperature Precipitation Wind Pressure Humidity
    00:00 +9°C° 0 mm 3 mps 657 mmHg 44%
    01:00 +8°C° 0 mm 3 mps 657 mmHg 44%
    02:00 +8°C° 0 mm 3 mps 657 mmHg 44%
    03:00 +8°C° 0 mm 3 mps 657 mmHg 44%
    04:00 +7°C° 0 mm 3 mps 657 mmHg 43%
    05:00 +7°C° 0 mm 3 mps 656 mmHg 42%
    06:00 +8°C° 0 mm 3 mps 657 mmHg 41%
    07:00 +8°C° 0 mm 3 mps 657 mmHg 39%
    08:00 +9°C° 0 mm 3 mps 658 mmHg 38%
    09:00 +12°C° 0 mm 2 mps 658 mmHg 35%
    10:00 +13°C° 0 mm 2 mps 658 mmHg 32%
    11:00 +15°C° 0 mm 1 mps 658 mmHg 28%
    12:00 +16°C° 0 mm 1 mps 658 mmHg 28%
    13:00 +16°C° 0 mm 1 mps 657 mmHg 28%
    14:00 +18°C° 0 mm 1 mps 657 mmHg 28%
    15:00 +18°C° 0 mm 1 mps 657 mmHg 29%
    16:00 +16°C° 0 mm 1 mps 657 mmHg 30%
    17:00 +16°C° 0 mm 1 mps 656 mmHg 31%
    18:00 +15°C° 0 mm 1 mps 657 mmHg 33%
    19:00 +14°C° 0 mm 2 mps 657 mmHg 34%
    20:00 +13°C° 0 mm 2 mps 657 mmHg 36%
    21:00 +13°C° 0 mm 2 mps 657 mmHg 36%
    22:00 +12°C° 0 mm 2 mps 657 mmHg 36%
    23:00 +12°C° 0 mm 2 mps 657 mmHg 36%

    24 February, Saturday

    Time Temperature Precipitation Wind Pressure Humidity
    00:00 +11°C° 0 mm 3 mps 657 mmHg 37%
    01:00 +11°C° 0 mm 3 mps 657 mmHg 37%
    02:00 +11°C° 0 mm 3 mps 657 mmHg 38%
    03:00 +10°C° 0.1 mm 3 mps 657 mmHg 42%
    04:00 +10°C° 0.1 mm 3 mps 657 mmHg 46%
    05:00 +10°C° 0.1 mm 3 mps 657 mmHg 51%
    06:00 +9°C° 0.4 mm 2 mps 657 mmHg 55%
    07:00 +9°C° 0.4 mm 2 mps 658 mmHg 60%
    08:00 +9°C° 0.4 mm 2 mps 658 mmHg 64%
    09:00 +9°C° 0.4 mm 2 mps 658 mmHg 64%
    10:00 +9°C° 0.4 mm 2 mps 658 mmHg 64%
    11:00 +10°C° 0.4 mm 1 mps 659 mmHg 64%
    12:00 +11°C° 0.2 mm 1 mps 658 mmHg 63%
    13:00 +10°C° 0.2 mm 2 mps 658 mmHg 62%
    14:00 +12°C° 0.2 mm 2 mps 658 mmHg 61%
    15:00 +12°C° 0.1 mm 2 mps 658 mmHg 62%
    16:00 +11°C° 0.1 mm 1 mps 658 mmHg 63%
    17:00 +11°C° 0.1 mm 1 mps 658 mmHg 64%
    18:00 +11°C° 0 mm 1 mps 658 mmHg 68%
    19:00 +10°C° 0 mm 1 mps 659 mmHg 71%
    20:00 +9°C° 0 mm 1 mps 659 mmHg 75%
    21:00 +9°C° 0 mm 1 mps 660 mmHg 73%
    22:00 +9°C° 0 mm 1 mps 660 mmHg 71%
    23:00 +9°C° 0 mm 1 mps 660 mmHg 70%

    25 February, Sunday

    Time Temperature Precipitation Wind Pressure Humidity
    00:00 +8°C° 0 mm 2 mps 660 mmHg 68%
    01:00 +7°C° 0 mm 2 mps 660 mmHg 67%
    02:00 +7°C° 0 mm 2 mps 660 mmHg 65%
    03:00 +7°C° 0 mm 2 mps 660 mmHg 63%
    04:00 +7°C° 0 mm 2 mps 660 mmHg 61%
    05:00 +7°C° 0 mm 2 mps 660 mmHg 59%
    06:00 +8°C° 0 mm 2 mps 660 mmHg 58%
    07:00 +9°C° 0 mm 2 mps 661 mmHg 56%
    08:00 +9°C° 0 mm 2 mps 661 mmHg 55%
    09:00 +10°C° 0 mm 2 mps 661 mmHg 52%
    10:00 +13°C° 0 mm 2 mps 662 mmHg 49%
    11:00 +14°C° 0 mm 1 mps 662 mmHg 46%
    12:00 +14°C° 0 mm 2 mps 662 mmHg 46%
    13:00 +15°C° 0 mm 2 mps 661 mmHg 46%
    14:00 +15°C° 0 mm 2 mps 661 mmHg 46%
    15:00 +15°C° 0 mm 2 mps 661 mmHg 47%
    16:00 +15°C° 0 mm 1 mps 661 mmHg 48%
    17:00 +15°C° 0 mm 1 mps 660 mmHg 49%
    18:00 +14°C° 0.1 mm 1 mps 661 mmHg 51%
    19:00 +13°C° 0.1 mm 2 mps 661 mmHg 54%
    20:00 +13°C° 0.1 mm 2 mps 661 mmHg 56%
    21:00 +12°C° 0.3 mm 2 mps 661 mmHg 58%
    22:00 +12°C° 0.3 mm 2 mps 661 mmHg 60%
    23:00 +12°C° 0.3 mm 2 mps 660 mmHg 61%

    26 February, Monday

    Time Temperature Precipitation Wind Pressure Humidity
    00:00 +12°C° 0.7 mm 2 mps 660 mmHg 63%
    01:00 +10°C° 0.7 mm 2 mps 660 mmHg 65%
    02:00 +10°C° 0.7 mm 2 mps 659 mmHg 67%
    03:00 +10°C° 0.6 mm 2 mps 659 mmHg 68%
    04:00 +10°C° 0.6 mm 2 mps 659 mmHg 69%
    05:00 +10°C° 0.6 mm 2 mps 659 mmHg 70%
    06:00 +10°C° 0.4 mm 2 mps 659 mmHg 69%
    07:00 +10°C° 0.4 mm 2 mps 659 mmHg 68%
    08:00 +12°C° 0.4 mm 2 mps 659 mmHg 68%
    09:00 +12°C° 0.3 mm 2 mps 659 mmHg 65%
    10:00 +13°C° 0.3 mm 2 mps 660 mmHg 62%
    11:00 +14°C° 0.3 mm 2 mps 660 mmHg 60%
    12:00 +15°C° 0.3 mm 2 mps 659 mmHg 59%
    13:00 +15°C° 0.3 mm 2 mps 659 mmHg 58%
    14:00 +15°C° 0.3 mm 2 mps 658 mmHg 58%
    15:00 +15°C° 0.2 mm 2 mps 658 mmHg 58%
    16:00 +15°C° 0.2 mm 2 mps 658 mmHg 59%
    17:00 +15°C° 0.2 mm 2 mps 658 mmHg 60%
    18:00 +14°C° 0.3 mm 2 mps 658 mmHg 62%
    19:00 +14°C° 0.3 mm 2 mps 658 mmHg 65%
    20:00 +13°C° 0.3 mm 2 mps 658 mmHg 68%
    21:00 +13°C° 0.5 mm 2 mps 658 mmHg 69%
    22:00 +13°C° 0.5 mm 2 mps 658 mmHg 71%
    23:00 +12°C° 0.5 mm 2 mps 658 mmHg 72%
    Show more